Weather History for Quakertown, PA

Change the Weather History Date:

Thursday, November 10, 2011

  Actual Average (KABE) Record (KABE)
Temperature  
Mean Temperature 48 °F 45 °F  
Max Temperature 55 °F 55 °F 70 °F (2002)
Min Temperature 41 °F 35 °F 21 °F (1956)
Degree Days  
Heating Degree Days 17 20  
Month to date heating degree days 189  
Since 1 July heating degree days 700  
Cooling Degree Days 0 0  
Month to date cooling degree days 0  
Year to date cooling degree days 757  
Moisture  
Dew Point 47 °F    
Average Humidity 95    
Maximum Humidity 100    
Minimum Humidity 76    
Precipitation  
Precipitation 0.07 in 0.10 in 2.66 in (1990)
Month to date precipitation 1.08  
Year to date precipitation 39.35  
Snow  
Snow 0.00 in 0.10 in 1.00 in (1987)
Month to date snowfall 0.1  
Since 1 July snowfall 0.1  
Since 1 September snowfall 0.1  
Snow Depth -    
Sea Level Pressure  
Sea Level Pressure 29.85 in    
Wind  
Wind Speed 1 mph (NW)    
Max Wind Speed 12 mph    
Max Gust Speed 18 mph    
Visibility 5 miles    
Events      
T = Trace of Precipitation, MM = Missing Value Source: NWS Daily Summary

Daily Weather History Graph

Daily Weather History Graph

Search for Another Location

Airport:

Trip Planner

Search our weather history database for the weather conditions in past years. The results will help you decide how hot, cold, wet, or windy it might be!

Date:

Astronomy

Nov. 10, 2011 Rise Set
Actual Time 6:41 AM EST 4:48 PM EST
Civil Twilight 6:12 AM EST 5:17 PM EST
Nautical Twilight 5:39 AM EST 5:50 PM EST
Astronomical Twilight 5:07 AM EST 6:22 PM EST
Moon 4:35 PM EST (11/10) 6:31 AM EST (11/10)
Length of Visible Light 11h 05m
Length of Day
10h 07m
Full, 100% of the Moon is Illuminated
Nov 10
Full
Nov 10
Full
Nov 18
Last Quarter
Nov 25
New
Dec 2
First Quarter

Hourly Weather History & Observations

Time (EST) Temp. Windchill Dew Point Humidity Pressure Visibility Wind Dir Wind Speed Gust Speed Precip Events Conditions
12:15 AM 50.0 °F - 50.0 °F 100% 30.01 in 0.5 mi Calm Calm - N/A   Overcast
12:35 AM 50.0 °F - 50.0 °F 100% 30.00 in 0.2 mi Calm Calm - N/A   Overcast
12:55 AM 50.0 °F - 50.0 °F 100% 29.99 in 0.2 mi Calm Calm - N/A   Overcast
1:15 AM 50.0 °F - 50.0 °F 100% 29.99 in 0.2 mi Calm Calm - N/A   Overcast
1:35 AM 50.0 °F - 50.0 °F 100% 29.99 in 0.2 mi Calm Calm - N/A   Overcast
1:55 AM 50.0 °F - 50.0 °F 100% 29.99 in 0.5 mi Calm Calm - N/A   Overcast
2:15 AM 50.0 °F - 50.0 °F 100% 29.98 in 0.2 mi Calm Calm - N/A   Overcast
2:35 AM 50.0 °F - 50.0 °F 100% 29.97 in 0.2 mi Calm Calm - N/A   Overcast
2:55 AM 50.0 °F - 50.0 °F 100% 29.97 in 0.2 mi Calm Calm - N/A   Overcast
3:15 AM 50.0 °F - 50.0 °F 100% 29.96 in 0.2 mi Calm Calm - N/A   Overcast
3:35 AM 50.0 °F - 50.0 °F 100% 29.95 in 0.2 mi Calm Calm - N/A   Overcast
4:15 AM 50.0 °F - 50.0 °F 100% 29.95 in 0.2 mi Calm Calm - N/A   Overcast
4:35 AM 50.0 °F - 50.0 °F 100% 29.94 in 0.2 mi Calm Calm - N/A   Overcast
4:55 AM 50.0 °F - 50.0 °F 100% 29.93 in 0.2 mi Calm Calm - N/A   Overcast
5:15 AM 50.0 °F - 50.0 °F 100% 29.93 in 0.2 mi Calm Calm - N/A   Overcast
5:35 AM 50.0 °F - 50.0 °F 100% 29.93 in 0.2 mi Calm Calm - N/A   Overcast
5:55 AM 50.0 °F - 50.0 °F 100% 29.93 in 0.2 mi Calm Calm - N/A   Overcast
6:15 AM 50.0 °F - 50.0 °F 100% 29.92 in 0.8 mi Calm Calm - N/A   Overcast
6:55 AM 51.8 °F - 51.8 °F 100% 29.92 in 0.2 mi Calm Calm - N/A   Overcast
7:15 AM 51.8 °F - 51.8 °F 100% 29.92 in 0.2 mi Calm Calm - N/A   Overcast
7:35 AM 51.8 °F - 51.8 °F 100% 29.91 in 0.2 mi Calm Calm - N/A   Overcast
7:55 AM 51.8 °F - 51.8 °F 100% 29.91 in 0.2 mi Calm Calm - N/A   Overcast
8:15 AM 50.0 °F - 50.0 °F 100% 29.92 in 0.2 mi Calm Calm - N/A   Overcast
8:35 AM 51.8 °F - 51.8 °F 100% 29.91 in 0.2 mi Calm Calm - N/A   Overcast
8:55 AM 51.8 °F - 51.8 °F 100% 29.92 in 0.5 mi Calm Calm - N/A   Overcast
9:35 AM 51.8 °F - 51.8 °F 100% 29.89 in 1.2 mi Calm Calm - N/A   Overcast
9:55 AM 51.8 °F - 51.8 °F 100% 29.89 in 2.5 mi Calm Calm - N/A   Overcast
10:15 AM 53.6 °F - 53.6 °F 100% 29.88 in 4.0 mi Calm Calm - N/A   Overcast
10:35 AM 53.6 °F - 53.6 °F 100% 29.88 in 5.0 mi Calm Calm - N/A   Overcast
10:55 AM 53.6 °F - 53.6 °F 100% 29.86 in 5.0 mi Calm Calm - N/A   Overcast
11:15 AM 53.6 °F - 53.6 °F 100% 29.85 in 5.0 mi Calm Calm - N/A   Overcast
11:35 AM 55.4 °F - 55.4 °F 100% 29.85 in 4.0 mi Calm Calm - N/A   Overcast
11:55 AM 55.4 °F - 55.4 °F 100% 29.84 in 5.0 mi WNW 3.5 mph - N/A   Overcast
12:15 PM 53.6 °F - 51.8 °F 94% 29.83 in 5.0 mi NW 3.5 mph - N/A   Overcast
12:55 PM 51.8 °F - 48.2 °F 88% 29.82 in 10.0 mi NW 8.1 mph - N/A   Overcast
1:15 PM 51.8 °F - 48.2 °F 88% 29.82 in 10.0 mi NW 9.2 mph - N/A   Overcast
1:35 PM 50.0 °F - 46.4 °F 87% 29.81 in 10.0 mi WNW 8.1 mph 16.1 mph N/A   Overcast
1:55 PM 48.2 °F - 44.6 °F 87% 29.80 in 10.0 mi NW 11.5 mph 18.4 mph N/A   Overcast
2:15 PM 48.2 °F - 44.6 °F 87% 29.81 in 10.0 mi NW 11.5 mph 16.1 mph N/A   Overcast
2:35 PM 48.2 °F - 44.6 °F 87% 29.80 in 10.0 mi NW 6.9 mph - N/A   Overcast
2:55 PM 48.2 °F - 42.8 °F 82% 29.79 in 10.0 mi NW 5.8 mph - N/A   Overcast
3:15 PM 46.4 °F 42.4 °F 41.0 °F 81% 29.79 in 10.0 mi NW 8.1 mph - N/A   Overcast
3:35 PM 46.4 °F 42.4 °F 41.0 °F 81% 29.78 in 10.0 mi NW 8.1 mph - N/A   Overcast
3:55 PM 46.4 °F 44.3 °F 39.2 °F 76% 29.78 in 10.0 mi NW 4.6 mph - N/A   Overcast
4:15 PM 46.4 °F - 39.2 °F 76% 29.78 in 10.0 mi Calm Calm - N/A   Overcast
4:35 PM 44.6 °F 43.1 °F 39.2 °F 81% 29.77 in 10.0 mi NW 3.5 mph - N/A   Overcast
4:55 PM 44.6 °F - 39.2 °F 81% 29.77 in 10.0 mi Calm Calm - N/A   Overcast
5:15 PM 44.6 °F - 39.2 °F 81% 29.76 in 10.0 mi Calm Calm - N/A   Mostly Cloudy
5:35 PM 42.8 °F - 39.2 °F 87% 29.75 in 8.0 mi Calm Calm - N/A   Mostly Cloudy
5:55 PM 42.8 °F 37.5 °F 41.0 °F 93% 29.75 in 10.0 mi NW 9.2 mph - N/A   Overcast
6:15 PM 41.0 °F - 41.0 °F 100% 29.76 in 9.0 mi Calm Calm - N/A   Overcast
6:35 PM 41.0 °F - 41.0 °F 100% 29.76 in 5.0 mi Calm Calm - N/A   Overcast
6:55 PM 41.0 °F 38.0 °F 41.0 °F 100% 29.77 in 4.0 mi WNW 4.6 mph - 0.01 in   Overcast
7:00 PM 41.0 °F 39.0 °F 41.0 °F 100% 29.78 in 4.0 mi WNW 3.5 mph - 0.02 in   Overcast
7:15 PM 41.0 °F 37.1 °F 41.0 °F 100% 29.78 in 5.0 mi WNW 5.8 mph - N/A   Overcast
7:35 PM 41.0 °F 38.0 °F 41.0 °F 100% 29.77 in 5.0 mi NW 4.6 mph - 0.02 in   Overcast
7:55 PM 41.0 °F 39.0 °F 41.0 °F 100% 29.76 in 6.0 mi NW 3.5 mph - 0.03 in   Overcast
8:00 PM 41.0 °F - 41.0 °F 100% 29.75 in 7.0 mi Calm Calm - 0.03 in   Mostly Cloudy
8:15 PM 41.0 °F - 41.0 °F 100% 29.75 in 9.0 mi Calm Calm - N/A   Mostly Cloudy
8:35 PM 41.0 °F - 41.0 °F 100% 29.75 in 10.0 mi Calm Calm - N/A   Partly Cloudy
8:55 PM 41.0 °F - 39.2 °F 93% 29.75 in 9.0 mi Calm Calm - N/A   Mostly Cloudy
9:15 PM 41.0 °F 38.0 °F 39.2 °F 93% 29.73 in 10.0 mi WNW 4.6 mph - N/A   Scattered Clouds
9:35 PM 41.0 °F - 39.2 °F 93% 29.74 in 10.0 mi Calm Calm - N/A   Mostly Cloudy
9:55 PM 41.0 °F - 37.4 °F 87% 29.73 in 10.0 mi Calm Calm - N/A   Scattered Clouds
10:15 PM 41.0 °F - 37.4 °F 87% 29.72 in 10.0 mi Calm Calm - N/A   Mostly Cloudy
10:55 PM 41.0 °F 39.0 °F 35.6 °F 81% 29.70 in 10.0 mi NW 3.5 mph - N/A   Mostly Cloudy
11:15 PM 41.0 °F - 35.6 °F 81% 29.71 in 10.0 mi Calm Calm - N/A   Scattered Clouds
11:35 PM 41.0 °F 39.0 °F 35.6 °F 81% 29.72 in 10.0 mi NW 3.5 mph - N/A   Partly Cloudy
11:55 PM 41.0 °F - 33.8 °F 76% 29.72 in 10.0 mi Calm Calm - N/A   Partly Cloudy